When you browse on this site, cookies collect data to enhance your experience and personalize the content and advertising you see.
Visit our Privacy Policy to learn more. By continuing to use the site, you agree to this use of cookies and data.
  • In Switzerland
  • List of Countries
  • For 7 days
  • Water Temperature
  • Satellite Maps
  • Weather Map
  • Weather Widgets
  • user-avatar
    Login

    Hourly Weather Ulanovka

    Today, 25 June, Tuesday

    Time Temperature Precipitation Wind Pressure Humidity
    00:00 +15°C° 0 mm 2 mps 749 mmHg 79%
    01:00 +14°C° 0 mm 3 mps 749 mmHg 79%
    02:00 +13°C° 0 mm 3 mps 749 mmHg 79%
    03:00 +13°C° 0 mm 3 mps 749 mmHg 80%
    04:00 +13°C° 0 mm 3 mps 750 mmHg 80%
    05:00 +13°C° 0 mm 3 mps 750 mmHg 79%
    06:00 +14°C° 0 mm 3 mps 750 mmHg 79%
    07:00 +16°C° 0 mm 3 mps 751 mmHg 75%
    08:00 +17°C° 0 mm 3 mps 751 mmHg 71%
    09:00 +19°C° 0 mm 3 mps 751 mmHg 68%
    10:00 +20°C° 0 mm 3 mps 751 mmHg 65%
    11:00 +20°C° 0 mm 4 mps 751 mmHg 62%
    12:00 +21°C° 0 mm 4 mps 751 mmHg 60%
    13:00 +21°C° 0.1 mm 4 mps 751 mmHg 58%
    14:00 +21°C° 0.1 mm 5 mps 751 mmHg 56%
    15:00 +21°C° 0.1 mm 5 mps 751 mmHg 54%
    16:00 +21°C° 0 mm 4 mps 751 mmHg 59%
    17:00 +20°C° 0 mm 4 mps 751 mmHg 64%
    18:00 +20°C° 0 mm 3 mps 751 mmHg 69%
    19:00 +18°C° 0 mm 3 mps 751 mmHg 70%
    20:00 +17°C° 0 mm 2 mps 751 mmHg 71%
    21:00 +15°C° 0 mm 2 mps 751 mmHg 72%
    22:00 +15°C° 0 mm 2 mps 751 mmHg 72%
    23:00 +14°C° 0 mm 2 mps 751 mmHg 72%

    Tomorrow, 26 June, Wednesday

    Time Temperature Precipitation Wind Pressure Humidity
    00:00 +13°C° 0 mm 2 mps 751 mmHg 71%
    01:00 +13°C° 0 mm 2 mps 751 mmHg 73%
    02:00 +13°C° 0 mm 1 mps 751 mmHg 75%
    03:00 +12°C° 0 mm 1 mps 752 mmHg 78%
    04:00 +13°C° 0 mm 1 mps 751 mmHg 78%
    05:00 +13°C° 0 mm 1 mps 751 mmHg 79%
    06:00 +14°C° 0 mm 2 mps 751 mmHg 80%
    07:00 +16°C° 0 mm 2 mps 751 mmHg 75%
    08:00 +17°C° 0 mm 2 mps 751 mmHg 70%
    09:00 +19°C° 0 mm 2 mps 751 mmHg 66%
    10:00 +20°C° 0 mm 2 mps 750 mmHg 62%
    11:00 +21°C° 0 mm 2 mps 750 mmHg 58%
    12:00 +22°C° 0 mm 3 mps 749 mmHg 54%
    13:00 +21°C° 0.1 mm 3 mps 749 mmHg 57%
    14:00 +21°C° 0.1 mm 3 mps 749 mmHg 60%
    15:00 +21°C° 0.1 mm 3 mps 748 mmHg 63%
    16:00 +21°C° 0.2 mm 2 mps 748 mmHg 68%
    17:00 +20°C° 0.2 mm 2 mps 747 mmHg 72%
    18:00 +20°C° 0.2 mm 1 mps 747 mmHg 77%
    19:00 +19°C° 0 mm 1 mps 746 mmHg 80%
    20:00 +18°C° 0 mm 1 mps 746 mmHg 82%
    21:00 +16°C° 0 mm 1 mps 746 mmHg 84%
    22:00 +16°C° 0 mm 1 mps 745 mmHg 85%
    23:00 +16°C° 0 mm 2 mps 744 mmHg 86%

    Day after tomorrow, 27 June, Thursday

    Time Temperature Precipitation Wind Pressure Humidity
    00:00 +15°C° 0 mm 2 mps 744 mmHg 87%
    01:00 +15°C° 0 mm 2 mps 743 mmHg 89%
    02:00 +15°C° 0 mm 2 mps 742 mmHg 91%
    03:00 +14°C° 0 mm 3 mps 742 mmHg 93%
    04:00 +14°C° 0.4 mm 4 mps 741 mmHg 93%
    05:00 +14°C° 0.4 mm 4 mps 740 mmHg 94%
    06:00 +15°C° 0.4 mm 5 mps 739 mmHg 95%
    07:00 +15°C° 2.8 mm 5 mps 738 mmHg 95%
    08:00 +15°C° 2.8 mm 6 mps 737 mmHg 96%
    09:00 +15°C° 2.8 mm 6 mps 737 mmHg 96%
    10:00 +16°C° 0.3 mm 6 mps 736 mmHg 95%
    11:00 +17°C° 0.3 mm 5 mps 735 mmHg 95%
    12:00 +19°C° 0.3 mm 5 mps 734 mmHg 94%
    13:00 +19°C° 0.4 mm 5 mps 734 mmHg 93%
    14:00 +20°C° 0.4 mm 5 mps 733 mmHg 92%
    15:00 +20°C° 0.4 mm 5 mps 733 mmHg 92%
    16:00 +20°C° 3.2 mm 5 mps 732 mmHg 93%
    17:00 +20°C° 3.2 mm 5 mps 731 mmHg 93%
    18:00 +19°C° 3.2 mm 5 mps 730 mmHg 94%
    19:00 +19°C° 3.5 mm 4 mps 730 mmHg 95%
    20:00 +19°C° 3.5 mm 3 mps 729 mmHg 96%
    21:00 +18°C° 3.5 mm 2 mps 728 mmHg 97%
    22:00 +18°C° 3.4 mm 2 mps 728 mmHg 97%
    23:00 +18°C° 3.4 mm 2 mps 727 mmHg 98%

    28 June, Friday

    Time Temperature Precipitation Wind Pressure Humidity
    00:00 +18°C° 3.4 mm 2 mps 726 mmHg 98%
    01:00 +17°C° 0.8 mm 2 mps 726 mmHg 98%
    02:00 +17°C° 0.8 mm 3 mps 726 mmHg 97%
    03:00 +17°C° 0.8 mm 3 mps 725 mmHg 97%
    04:00 +17°C° 0.1 mm 4 mps 725 mmHg 96%
    05:00 +16°C° 0.1 mm 5 mps 725 mmHg 96%
    06:00 +16°C° 0.1 mm 6 mps 725 mmHg 95%
    07:00 +16°C° 0 mm 6 mps 725 mmHg 93%
    08:00 +15°C° 0 mm 6 mps 724 mmHg 91%
    09:00 +15°C° 0 mm 7 mps 724 mmHg 89%
    10:00 +16°C° 0.1 mm 7 mps 724 mmHg 87%
    11:00 +16°C° 0.1 mm 7 mps 724 mmHg 85%
    12:00 +16°C° 0.1 mm 7 mps 724 mmHg 82%
    13:00 +16°C° 0.1 mm 7 mps 724 mmHg 83%
    14:00 +16°C° 0.1 mm 7 mps 724 mmHg 84%
    15:00 +15°C° 0.1 mm 7 mps 724 mmHg 84%
    16:00 +15°C° 0.1 mm 6 mps 724 mmHg 86%
    17:00 +15°C° 0.1 mm 6 mps 724 mmHg 87%
    18:00 +14°C° 0.1 mm 6 mps 724 mmHg 88%
    19:00 +14°C° 0 mm 6 mps 724 mmHg 89%
    20:00 +13°C° 0 mm 6 mps 724 mmHg 89%
    21:00 +13°C° 0 mm 5 mps 724 mmHg 90%
    22:00 +12°C° 0.2 mm 5 mps 724 mmHg 91%
    23:00 +12°C° 0.2 mm 5 mps 724 mmHg 93%

    29 June, Saturday

    Time Temperature Precipitation Wind Pressure Humidity
    00:00 +12°C° 0.2 mm 5 mps 724 mmHg 94%
    01:00 +12°C° 0.3 mm 5 mps 724 mmHg 94%
    02:00 +12°C° 0.3 mm 5 mps 724 mmHg 95%
    03:00 +10°C° 0.3 mm 5 mps 724 mmHg 96%
    04:00 +10°C° 0.2 mm 5 mps 724 mmHg 95%
    05:00 +10°C° 0.2 mm 5 mps 725 mmHg 95%
    06:00 +10°C° 0.2 mm 5 mps 725 mmHg 95%
    07:00 +10°C° 0.3 mm 6 mps 726 mmHg 95%
    08:00 +10°C° 0.3 mm 6 mps 726 mmHg 94%
    09:00 +10°C° 0.3 mm 6 mps 727 mmHg 94%
    10:00 +10°C° 0.3 mm 6 mps 727 mmHg 94%
    11:00 +10°C° 0.3 mm 6 mps 728 mmHg 93%
    12:00 +10°C° 0.3 mm 6 mps 729 mmHg 93%
    13:00 +9°C° 0.3 mm 6 mps 730 mmHg 93%
    14:00 +9°C° 0.3 mm 6 mps 730 mmHg 93%
    15:00 +9°C° 0.3 mm 6 mps 731 mmHg 93%
    16:00 +9°C° 0.1 mm 6 mps 732 mmHg 92%
    17:00 +9°C° 0.1 mm 5 mps 732 mmHg 91%
    18:00 +9°C° 0.1 mm 5 mps 733 mmHg 90%
    19:00 +10°C° 0 mm 4 mps 733 mmHg 90%
    20:00 +8°C° 0 mm 4 mps 733 mmHg 90%
    21:00 +9°C° 0 mm 3 mps 734 mmHg 89%
    22:00 +9°C° 0 mm 3 mps 734 mmHg 88%
    23:00 +9°C° 0 mm 3 mps 734 mmHg 88%

    30 June, Sunday

    Time Temperature Precipitation Wind Pressure Humidity
    00:00 +9°C° 0 mm 3 mps 734 mmHg 87%
    01:00 +9°C° 0 mm 3 mps 734 mmHg 86%
    02:00 +8°C° 0 mm 4 mps 735 mmHg 86%
    03:00 +8°C° 0 mm 4 mps 735 mmHg 85%
    04:00 +9°C° 0.1 mm 3 mps 735 mmHg 86%
    05:00 +9°C° 0.1 mm 3 mps 735 mmHg 87%
    06:00 +9°C° 0.1 mm 2 mps 735 mmHg 87%
    07:00 +10°C° 0 mm 3 mps 736 mmHg 84%
    08:00 +11°C° 0 mm 3 mps 736 mmHg 81%
    09:00 +12°C° 0 mm 4 mps 736 mmHg 77%
    10:00 +13°C° 0 mm 4 mps 736 mmHg 73%
    11:00 +14°C° 0 mm 4 mps 737 mmHg 68%
    12:00 +15°C° 0 mm 4 mps 737 mmHg 64%
    13:00 +17°C° 0.1 mm 4 mps 737 mmHg 63%
    14:00 +18°C° 0.1 mm 4 mps 737 mmHg 62%
    15:00 +18°C° 0.1 mm 3 mps 737 mmHg 61%
    16:00 +18°C° 0.2 mm 3 mps 737 mmHg 64%
    17:00 +18°C° 0.2 mm 3 mps 737 mmHg 67%
    18:00 +18°C° 0.2 mm 2 mps 738 mmHg 70%
    19:00 +16°C° 0 mm 2 mps 738 mmHg 72%
    20:00 +15°C° 0 mm 2 mps 738 mmHg 74%
    21:00 +13°C° 0 mm 1 mps 738 mmHg 76%
    22:00 +12°C° 0 mm 2 mps 738 mmHg 78%
    23:00 +12°C° 0 mm 2 mps 738 mmHg 80%
    Show more